DW6963 Weather Reports


Display with metric or nautical units.
time (UTC)temp
F
wind
direction
speed
MPH
gust
MPH
rain 1hr
in
rain 24hr
in
rain mn
in
humidity
%
barometer
mb
20260504050412 53 0 0.0 0.0 0.00 0.00 0.00 59 1012.5
20260504045913 53 0 0.0 0.0 0.00 0.00 0.00 59 1012.5
20260504045413 54 0 0.0 0.0 0.00 0.00 0.00 59 1012.5
20260504044912 54 0 0.0 0.0 0.00 0.00 0.00 58 1012.6
20260504043912 54 0 0.0 0.0 0.00 0.00 0.00 58 1012.7
20260504043413 54 0 0.0 0.0 0.00 0.00 0.00 58 1012.7
20260504042912 54 0 0.0 0.0 0.00 0.00 0.00 58 1012.7
20260504042413 54 0 0.0 0.0 0.00 0.00 0.00 58 1012.8
20260504041912 54 0 0.0 0.0 0.00 0.00 0.00 58 1012.8
20260504041413 54 0 0.0 0.0 0.00 0.00 0.00 57 1013.0
20260504040912 54 0 0.0 0.0 0.00 0.00 0.00 58 1013.0
20260504040416 54 0 0.0 0.0 0.00 0.00 0.00 58 1013.1
20260504035913 54 0 0.0 0.0 0.00 0.00 0.00 58 1013.1
20260504035413 54 0 0.0 0.0 0.00 0.00 0.00 58 1013.2
20260504034912 54 0 0.0 0.0 0.00 0.00 0.00 58 1013.3
20260504034413 54 0 0.0 0.0 0.00 0.00 0.00 57 1013.2
20260504033912 54 0 0.0 0.0 0.00 0.00 0.00 57 1013.2
20260504033413 54 0 0.0 0.0 0.00 0.00 0.00 57 1013.2
20260504032912 54 0 0.0 0.0 0.00 0.00 0.00 56 1013.2
20260504032413 54 0 0.0 0.0 0.00 0.00 0.00 55 1013.3
20260504031912 54 0 0.0 0.0 0.00 0.00 0.00 56 1013.3
20260504031413 54 0 0.0 0.0 0.00 0.00 0.00 55 1013.4
20260504030912 54 0 0.0 0.0 0.00 0.00 0.00 55 1013.4
20260504025912 54 0 0.0 0.0 0.00 0.00 0.00 55 1013.5
20260504025413 55 0 0.0 0.0 0.00 0.00 0.00 54 1013.6
20260504024912 55 0 0.0 0.0 0.00 0.00 0.00 54 1013.7
20260504024412 55 0 0.0 0.0 0.00 0.00 0.00 54 1013.5
20260504023912 54 0 0.0 0.0 0.00 0.00 0.00 55 1013.5
20260504023413 54 0 0.0 0.0 0.00 0.00 0.00 56 1013.5
20260504022913 54 0 0.0 0.0 0.00 0.00 0.00 57 1013.6
20260504022412 54 0 0.0 0.0 0.00 0.00 0.00 59 1013.6
20260504021413 54 0 0.0 0.0 0.00 0.00 0.00 58 1013.6
20260504015913 54 0 0.0 0.0 0.00 0.00 0.00 58 1013.5
20260504015413 54 0 0.0 0.0 0.00 0.00 0.00 58 1013.4
20260504014913 54 0 0.0 0.0 0.00 0.00 0.00 57 1013.4
20260504014413 54 0 0.0 0.0 0.00 0.00 0.00 57 1013.4
20260504013913 54 0 0.0 0.0 0.00 0.00 0.00 59 1013.4
20260504013414 54 0 0.0 0.0 0.00 0.00 0.00 58 1013.4
20260504012912 54 0 0.0 0.0 0.00 0.00 0.00 57 1013.3
20260504012413 55 0 0.0 0.0 0.00 0.00 0.00 56 1013.4
20260504011913 55 0 0.0 0.0 0.00 0.00 0.00 56 1013.5
20260504011413 55 0 0.0 0.0 0.00 0.00 0.00 54 1013.5
20260504010913 55 0 0.0 0.0 0.00 0.00 0.00 55 1013.6
20260504010413 56 0 0.0 0.0 0.00 0.00 0.00 54 1013.6
20260504005913 56 0 0.0 0.0 0.00 0.00 0.00 51 1013.6
20260504005413 56 0 0.0 0.0 0.00 0.00 0.00 51 1013.5
20260504004413 56 0 0.0 0.0 0.00 0.00 0.00 49 1013.4
20260504003913 56 0 0.0 0.0 0.00 0.00 0.00 47 1013.3
20260504003413 56 0 0.0 0.0 0.00 0.00 0.00 49 1013.3
20260504002912 56 0 0.0 0.0 0.00 0.00 0.00 48 1013.2
20260504002413 56 0 0.0 0.0 0.00 0.00 0.00 49 1013.1
20260504001913 56 0 0.0 0.0 0.00 0.00 0.00 47 1013.2
20260504001413 57 0 0.0 0.0 0.00 0.00 0.00 47 1012.9
20260504000913 57 0 0.0 0.0 0.00 0.00 0.00 45 1012.9
20260504000413 57 0 0.0 0.0 0.00 0.00 0.00 44 1012.8
20260503235912 57 0 0.0 0.0 0.00 0.00 0.00 44 1012.7
20260503235413 58 0 0.0 0.0 0.00 0.00 0.00 45 1012.7
20260503234913 58 0 0.0 0.0 0.00 0.00 0.00 44 1012.9
20260503234413 58 0 0.0 0.0 0.00 0.00 0.00 45 1013.0
20260503232913 57 0 0.0 0.0 0.00 0.00 0.00 44 1013.3
20260503231913 55 0 0.0 0.0 0.00 0.00 0.00 58 1013.6
20260503231413 55 0 0.0 0.0 0.00 0.00 0.00 60 1013.7
20260503225912 55 0 0.0 0.0 0.00 0.00 0.00 60 1014.0
20260503225413 55 0 0.0 0.0 0.00 0.00 0.00 59 1014.1
20260503224913 55 0 0.0 0.0 0.00 0.00 0.00 58 1014.1
20260503224413 56 0 0.0 0.0 0.00 0.00 0.00 58 1014.2
20260503223912 56 0 0.0 0.0 0.00 0.00 0.00 57 1014.4
20260503223413 56 0 0.0 0.0 0.00 0.00 0.00 57 1014.5
20260503222912 56 0 0.0 0.0 0.00 0.00 0.00 56 1014.5
20260503222413 56 0 0.0 0.0 0.00 0.00 0.00 56 1014.6
20260503221413 56 0 0.0 0.0 0.00 0.00 0.00 55 1014.4
20260503220913 56 0 0.0 0.0 0.00 0.00 0.00 53 1014.5
20260503220413 56 0 0.0 0.0 0.00 0.00 0.00 54 1014.6
20260503215913 57 0 0.0 0.0 0.00 0.00 0.00 53 1014.6
20260503215413 56 0 0.0 0.0 0.00 0.00 0.00 51 1014.7
20260503214913 56 0 0.0 0.0 0.00 0.00 0.00 48 1014.6
20260503214412 56 0 0.0 0.0 0.00 0.00 0.00 46 1014.6
20260503213913 55 0 0.0 0.0 0.00 0.00 0.00 47 1014.7
20260503213412 55 0 0.0 0.0 0.00 0.00 0.00 47 1014.7
20260503212913 55 0 0.0 0.0 0.00 0.00 0.00 48 1014.9
20260503212412 55 0 0.0 0.0 0.00 0.00 0.00 51 1015.0
20260503211913 55 0 0.0 0.0 0.00 0.00 0.00 48 1015.1
20260503211412 55 0 0.0 0.0 0.00 0.00 0.00 49 1015.4
20260503210913 56 0 0.0 0.0 0.00 0.00 0.00 48 1015.7
20260503210412 56 0 0.0 0.0 0.00 0.00 0.00 45 1015.9
20260503205913 58 0 0.0 0.0 0.00 0.00 0.00 42 1015.7
20260503205412 58 0 0.0 0.0 0.00 0.00 0.00 41 1015.5
20260503204913 58 0 0.0 0.0 0.00 0.00 0.00 40 1015.4
20260503203913 58 0 0.0 0.0 0.00 0.00 0.00 40 1015.3
20260503203413 59 0 0.0 0.0 0.00 0.00 0.00 39 1015.3
20260503202912 59 0 0.0 0.0 0.00 0.00 0.00 39 1015.3
20260503202413 59 0 0.0 0.0 0.00 0.00 0.00 38 1015.1
20260503201913 60 0 0.0 0.0 0.00 0.00 0.00 39 1015.1
20260503201413 60 0 0.0 0.0 0.00 0.00 0.00 40 1015.1
20260503200913 60 0 0.0 0.0 0.00 0.00 0.00 38 1015.2
20260503200413 60 0 0.0 0.0 0.00 0.00 0.00 40 1015.2
20260503195413 60 0 0.0 0.0 0.00 0.00 0.00 39 1015.4
20260503194913 60 0 0.0 0.0 0.00 0.00 0.00 39 1015.6
20260503194413 60 0 0.0 0.0 0.00 0.00 0.00 38 1015.7
20260503193913 60 0 0.0 0.0 0.00 0.00 0.00 42 1015.8
20260503192912 59 0 0.0 0.0 0.00 0.00 0.00 40 1016.0
20260503192413 60 0 0.0 0.0 0.00 0.00 0.00 38 1015.9
20260503191913 60 0 0.0 0.0 0.00 0.00 0.00 41 1015.9
20260503191412 60 0 0.0 0.0 0.00 0.00 0.00 40 1016.0
20260503190912 60 0 0.0 0.0 0.00 0.00 0.00 39 1016.2
20260503190413 60 0 0.0 0.0 0.00 0.00 0.00 40 1016.3
20260503185913 60 0 0.0 0.0 0.00 0.00 0.00 38 1016.4
20260503185413 60 0 0.0 0.0 0.00 0.00 0.00 40 1016.5
20260503184913 60 0 0.0 0.0 0.00 0.00 0.00 39 1016.7
20260503184412 59 0 0.0 0.0 0.00 0.00 0.00 41 1016.8
20260503183912 59 0 0.0 0.0 0.00 0.00 0.00 43 1016.9
20260503183413 59 0 0.0 0.0 0.00 0.00 0.00 41 1016.8
20260503182913 59 0 0.0 0.0 0.00 0.00 0.00 38 1016.9
20260503182413 59 0 0.0 0.0 0.00 0.00 0.00 43 1016.9
20260503181413 58 0 0.0 0.0 0.00 0.00 0.00 40 1017.0
20260503180913 58 0 0.0 0.0 0.00 0.00 0.00 41 1017.1
20260503180413 58 0 0.0 0.0 0.00 0.00 0.00 40 1017.1
20260503175913 58 0 0.0 0.0 0.00 0.00 0.00 39 1017.2
20260503175413 58 0 0.0 0.0 0.00 0.00 0.00 42 1017.3
20260503174413 58 0 0.0 0.0 0.00 0.00 0.00 42 1017.4
20260503173913 58 0 0.0 0.0 0.00 0.00 0.00 43 1017.5
20260503173412 58 0 0.0 0.0 0.00 0.00 0.00 43 1017.6
20260503172913 57 0 0.0 0.0 0.00 0.00 0.00 42 1017.8
20260503172413 57 0 0.0 0.0 0.00 0.00 0.00 40 1017.8
20260503171913 57 0 0.0 0.0 0.00 0.00 0.00 41 1017.9
20260503171413 57 0 0.0 0.0 0.00 0.00 0.00 43 1017.9
20260503170913 57 0 0.0 0.0 0.00 0.00 0.00 40 1018.0
20260503150913 53 0 0.0 0.0 0.00 0.00 0.00 55 1019.2
20260503150413 52 0 0.0 0.0 0.00 0.00 0.00 55 1019.2
20260503131413 45 0 0.0 0.0 0.00 0.00 0.00 69 1019.3
20260503130913 45 0 0.0 0.0 0.00 0.00 0.00 70 1019.3
20260503130412 44 0 0.0 0.0 0.00 0.00 0.00 70 1019.3
20260503110413 31 0 0.0 0.0 0.00 0.00 0.00 90 1018.6
20260503090413 31 0 0.0 0.0 0.00 0.00 0.00 90 1017.9
20260503081412 31 0 0.0 0.0 0.00 0.00 0.00 89 1017.9
20260503080913 31 0 0.0 0.0 0.00 0.00 0.00 89 1017.9
20260503080413 31 0 0.0 0.0 0.00 0.00 0.00 89 1017.9